Date,TemperatureHighF,TemperatureAvgF,TemperatureLowF,DewpointHighF,DewpointAvgF,DewpointLowF,HumidityHigh,HumidityAvg,HumidityLow,PressureMaxIn,PressureMinIn,WindSpeedMaxMPH,WindSpeedAvgMPH,GustSpeedMaxMPH,PrecipitationSumIn
2013-3-1,32.0,29.6,24.8,31.0,25.5,20.0,95,85,76,30.13,29.96,9,4,14,0.00
2013-3-2,31.6,27.2,24.7,23.0,21.1,19.0,86,78,69,30.12,30.07,13,7,17,0.00
2013-3-3,32.2,26.2,19.1,21.0,19.3,15.0,88,75,63,30.11,30.05,22,6,22,0.00
2013-3-4,35.2,26.7,15.4,27.0,20.1,14.0,95,77,57,30.17,30.05,7,2,11,0.00
2013-3-5,32.6,30.1,27.3,29.0,27.1,25.0,97,88,77,30.09,29.73,18,9,22,0.00
2013-3-6,33.3,30.3,26.1,29.0,27.2,25.0,96,88,81,30.25,29.81,17,7,22,0.18
2013-3-7,36.6,33.0,26.6,31.0,28.0,23.0,94,82,65,30.41,30.24,13,4,14,0.02
2013-3-8,39.0,27.0,12.9,27.0,20.4,11.0,96,78,53,30.52,30.41,6,1,7,0.00
2013-3-9,43.3,33.9,22.9,36.0,28.7,19.0,88,81,69,30.42,29.98,16,6,19,0.00
2013-3-10,57.8,47.8,40.0,47.0,39.5,35.0,81,73,65,29.98,29.73,13,7,18,0.03
2013-3-11,53.5,44.7,35.0,49.0,41.9,32.0,98,90,65,29.75,29.53,11,4,22,0.13
2013-3-12,35.4,32.6,30.2,32.0,28.9,26.0,95,86,72,29.96,29.76,10,3,16,0.00
2013-3-13,30.8,27.1,24.3,28.0,22.1,18.0,91,81,69,30.30,29.96,21,7,28,0.01
2013-3-14,41.8,31.2,22.2,28.0,21.7,18.0,85,69,45,30.33,30.13,6,2,11,0.01
2013-3-15,46.7,37.9,30.3,41.0,34.5,28.0,97,88,71,30.14,29.78,6,1,10,0.19
2013-3-16,40.2,34.5,30.2,40.0,32.9,27.0,98,93,83,30.08,29.64,11,6,16,0.00
2013-3-17,35.5,30.2,27.6,26.0,24.1,22.0,85,78,65,30.22,30.08,18,8,22,0.00
2013-3-18,35.5,31.6,27.5,35.0,29.8,23.0,98,93,81,30.09,29.58,20,8,25,0.05
2013-3-19,35.2,27.9,21.2,27.0,18.7,15.0,84,69,54,30.04,29.75,14,5,28,0.00
2013-3-20,29.5,25.0,19.5,19.0,15.2,11.0,87,67,53,30.04,29.98,15,6,21,0.00
2013-3-21,33.2,23.5,16.0,23.0,17.8,13.0,91,79,57,30.04,29.96,16,5,20,0.02
2013-3-22,40.9,27.5,16.2,23.0,18.9,14.0,94,72,44,30.07,30.00,9,2,14,0.00
2013-3-23,41.2,31.2,22.7,27.0,23.3,18.0,91,74,52,30.12,30.00,9,3,13,0.00
2013-3-24,35.1,31.1,27.4,28.0,25.9,24.0,91,81,67,30.01,29.57,25,10,31,0.00
2013-3-25,36.1,31.8,28.0,31.0,28.6,27.0,96,88,73,29.98,29.55,16,10,25,0.06
2013-3-26,38.4,34.1,31.1,32.0,29.8,28.0,92,84,70,30.20,29.98,13,6,19,0.00
2013-3-27,41.6,35.5,29.5,33.0,29.0,23.0,92,78,56,30.29,30.20,15,4,20,0.00
2013-3-28,50.1,37.1,23.1,28.0,24.9,20.0,89,64,41,30.33,30.27,10,2,15,0.00
2013-3-29,51.6,37.7,23.9,30.0,24.9,21.0,92,64,37,30.32,30.21,16,2,18,0.00
2013-3-30,55.4,39.4,23.9,36.0,28.7,21.0,92,68,45,30.24,29.92,7,1,13,0.00
2013-3-31,61.2,48.2,37.5,45.0,38.0,31.0,97,70,40,29.92,29.66,21,3,24,0.00